sat.trackr.live / text

‹ back to catalog

STARLINK-35085

NORAD 65419 · 2025-192R

PAYLOAD ACTIVE UNKNOWN

§ Identity

Operator
Country
US
Launch date
2025-08-31
Launch site
AFETR
Launch vehicle
Mass (kg)
RCS (m²)

Purposes: comms

External: N2YO · Heavens-Above · Gunter

§ Orbital elements

Epoch: 2026-09-20T22:03:16.811712Z

Period
94.01 min
Inclination
53.1609°
Eccentricity
0.0001166
Mean motion
15.31697930 rev/d
Perigee alt
469.9 km
Apogee alt
471.5 km
Semi-major
6,848.9 km
B*
4.5431e-4
RAAN
43.4857°
Arg perigee
88.8533°
Mean anomaly
271.2602°
Rev number
5,930

§ Raw data

STARLINK-350851 65419U 25192R   26263.91894458  .00013758  00000+0  45431-3 0  99942 65419  53.1609  43.4857 0001166  88.8533 271.2602 15.31697930 59302

JSON: /api/v1/satellites/65419 · /tle

For live sub-satellite position, see the globe view (requires WebGL).

§ Visibility from observer

Set your observer location to see the next 7 days of passes ≥ 10°. The values pass through the URL so the page stays shareable.

No JS? Fill the form by hand. The geolocation button needs JavaScript.